College Park, MD

10:51 PM EST on December 11, 2019 (GMT -0500)
College Park

Weather History for KCGS - October, 2019

Change the Weather History Date:

Tuesday, October 8, 2019

  Actual Average Record
Temperature  
Mean Temperature 62 °F -  
Max Temperature 66 °F 70 °F 89 °F (1990)
Min Temperature 59 °F 46 °F 27 °F (1954)
Degree Days  
Heating Degree Days 2    
Growing Degree Days 12 (Base 50)    
Moisture  
Dew Point 45 °F    
Average Humidity 55    
Maximum Humidity 75    
Minimum Humidity 35    
Precipitation  
Precipitation 0.00 in - - ()
Sea Level Pressure  
Sea Level Pressure 30.19 in    
Wind  
Wind Speed 7 mph (NNE)    
Max Wind Speed 12 mph    
Max Gust Speed 22 mph    
Visibility 10 miles    
Events      
Averages and records for this station are not official NWS values.
T = Trace of Precipitation, MM = Missing Value Source: NWS Daily Summary

Daily Weather History Graph

Daily Weather History Graph

Search for Another Location

Airport or City:

Astronomy

Oct. 08, 2019 Rise Set
Actual Time 7:10 AM EDT 6:39 PM EDT
Civil Twilight 6:43 AM EDT 7:06 PM EDT
Nautical Twilight 6:12 AM EDT 7:37 PM EDT
Astronomical Twilight 5:41 AM EDT 8:08 PM EDT
Moon 4:34 PM EDT (10/8) 2:00 AM EDT (10/8)
Length of Visible Light 12h 23m
Length of Day
11h 29m
Waxing Gibbous, 77% of the Moon is Illuminated
Oct 8
Waxing Gibbous
Oct 13
Full
Oct 21
Last Quarter
Oct 27
New
Nov 4
First Quarter

Hourly Weather History & Observations

Time (EDT) Temp. Dew Point Humidity Pressure Visibility Wind Dir Wind Speed Gust Speed Precip Events Conditions
12:03 AM 61.0 °F 52.2 °F 73% 30.17 in 10.0 mi NE 6.9 mph - N/A   Overcast
12:23 AM 60.8 °F 52.3 °F 74% 30.17 in 10.0 mi NNE 4.6 mph - N/A   Overcast
12:43 AM 60.3 °F 52.2 °F 75% 30.17 in 10.0 mi North 4.6 mph - N/A   Overcast
1:03 AM 60.3 °F 52.2 °F 75% 30.17 in 10.0 mi NNE 4.6 mph - N/A   Overcast
1:23 AM 60.3 °F 52.2 °F 75% 30.17 in 10.0 mi NNE 5.8 mph - N/A   Overcast
1:43 AM 60.3 °F 51.6 °F 73% 30.17 in 10.0 mi North 6.9 mph - N/A   Overcast
2:03 AM 60.1 °F 52.0 °F 75% 30.17 in 10.0 mi North 8.1 mph - N/A   Overcast
2:23 AM 59.9 °F 51.4 °F 74% 30.16 in 10.0 mi North 4.6 mph 16.1 mph N/A   Mostly Cloudy
2:43 AM 59.5 °F 51.3 °F 74% 30.17 in 10.0 mi NNE 6.9 mph - N/A   Mostly Cloudy
3:03 AM 59.5 °F 51.4 °F 75% 30.16 in 10.0 mi North 9.2 mph - N/A   Scattered Clouds
3:23 AM 59.7 °F 51.1 °F 73% 30.16 in 10.0 mi North 5.8 mph - N/A   Mostly Cloudy
3:43 AM 59.9 °F 49.5 °F 68% 30.17 in 10.0 mi North 8.1 mph 16.1 mph N/A   Overcast
4:03 AM 59.5 °F 49.3 °F 69% 30.17 in 10.0 mi NNW 6.9 mph - N/A   Overcast
4:23 AM 59.2 °F 50.4 °F 73% 30.17 in 10.0 mi North 4.6 mph - N/A   Overcast
4:43 AM 59.4 °F 50.4 °F 72% 30.18 in 10.0 mi NNE 6.9 mph - N/A   Overcast
5:03 AM 59.4 °F 51.1 °F 74% 30.17 in 10.0 mi North 5.8 mph - N/A   Overcast
5:23 AM 59.4 °F 50.9 °F 74% 30.18 in 10.0 mi North 5.8 mph - N/A   Overcast
5:43 AM 59.2 °F 50.2 °F 72% 30.19 in 10.0 mi NNE 5.8 mph - N/A   Overcast
6:03 AM 59.0 °F 49.3 °F 70% 30.20 in 10.0 mi North 6.9 mph - N/A   Overcast
6:23 AM 59.2 °F 48.2 °F 67% 30.20 in 10.0 mi NNE 6.9 mph - N/A   Overcast
6:43 AM 59.4 °F 46.4 °F 62% 30.20 in 10.0 mi NNE 6.9 mph - N/A   Overcast
7:03 AM 59.5 °F 46.0 °F 61% 30.20 in 10.0 mi NNE 8.1 mph - N/A   Overcast
7:23 AM 59.4 °F 46.6 °F 63% 30.20 in 10.0 mi NNE 6.9 mph 16.1 mph N/A   Overcast
7:43 AM 59.4 °F 46.6 °F 63% 30.20 in 10.0 mi NNE 4.6 mph - N/A   Overcast
8:03 AM 59.4 °F 46.4 °F 62% 30.21 in 10.0 mi NNE 5.8 mph - N/A   Overcast
8:23 AM 59.5 °F 46.4 °F 62% 30.20 in 10.0 mi NNE 4.6 mph - N/A   Overcast
8:43 AM 60.1 °F 46.4 °F 61% 30.20 in 10.0 mi NNE 6.9 mph - N/A   Scattered Clouds
9:03 AM 60.3 °F 46.0 °F 59% 30.21 in 10.0 mi NNE 9.2 mph - N/A   Scattered Clouds
9:23 AM 61.0 °F 46.2 °F 58% 30.21 in 10.0 mi NNE 9.2 mph - N/A   Clear
9:43 AM 61.9 °F 46.2 °F 56% 30.21 in 10.0 mi NNE 8.1 mph - N/A   Mostly Cloudy
10:03 AM 61.7 °F 45.7 °F 56% 30.21 in 10.0 mi NNE 9.2 mph - N/A   Overcast
10:23 AM 62.2 °F 45.7 °F 55% 30.21 in 10.0 mi NNE 10.4 mph - N/A   Overcast
10:43 AM 63.0 °F 45.9 °F 54% 30.22 in 10.0 mi NE 6.9 mph 16.1 mph N/A   Overcast
11:03 AM 62.6 °F 45.7 °F 54% 30.22 in 10.0 mi NE 6.9 mph - N/A   Overcast
11:23 AM 63.0 °F 46.4 °F 55% 30.22 in 10.0 mi ENE 10.4 mph 17.3 mph N/A   Overcast
11:43 AM 63.1 °F 46.4 °F 54% 30.22 in 10.0 mi ENE 6.9 mph - N/A   Mostly Cloudy
12:03 PM 63.5 °F 45.7 °F 52% 30.21 in 10.0 mi NE 8.1 mph 18.4 mph N/A   Mostly Cloudy
12:23 PM 63.7 °F 45.7 °F 52% 30.20 in 10.0 mi NNE 8.1 mph 16.1 mph N/A   Scattered Clouds
12:43 PM 63.9 °F 44.8 °F 50% 30.20 in 10.0 mi NNE 9.2 mph 16.1 mph N/A   Scattered Clouds
1:03 PM 63.9 °F 44.6 °F 50% 30.20 in 10.0 mi ENE 11.5 mph 20.7 mph N/A   Mostly Cloudy
1:23 PM 63.9 °F 44.4 °F 49% 30.20 in 10.0 mi ENE 11.5 mph 21.9 mph N/A   Overcast
1:43 PM 64.0 °F 44.1 °F 48% 30.18 in 10.0 mi NE 9.2 mph 16.1 mph N/A   Overcast
2:03 PM 63.9 °F 43.5 °F 48% 30.17 in 10.0 mi NNE 9.2 mph 19.6 mph N/A   Overcast
2:23 PM 64.6 °F 42.6 °F 45% 30.17 in 10.0 mi ENE 8.1 mph 16.1 mph N/A   Overcast
2:43 PM 64.6 °F 41.4 °F 43% 30.17 in 10.0 mi NE 8.1 mph 19.6 mph N/A   Mostly Cloudy
3:03 PM 65.1 °F 40.5 °F 40% 30.17 in 10.0 mi NNE 8.1 mph - N/A   Mostly Cloudy
3:23 PM 65.8 °F 40.3 °F 39% 30.16 in 10.0 mi ENE 9.2 mph - N/A   Overcast
3:43 PM 66.2 °F 38.8 °F 37% 30.16 in 10.0 mi NNE 6.9 mph 17.3 mph N/A   Mostly Cloudy
4:03 PM 66.6 °F 38.3 °F 35% 30.15 in 10.0 mi NE 8.1 mph - N/A   Scattered Clouds
4:23 PM 66.2 °F 39.2 °F 37% 30.15 in 10.0 mi NE 6.9 mph - N/A   Scattered Clouds
4:43 PM 66.2 °F 39.9 °F 38% 30.15 in 10.0 mi NNE 6.9 mph - N/A   Clear
5:03 PM 66.2 °F 39.4 °F 37% 30.15 in 10.0 mi NNE 6.9 mph - N/A   Clear
5:23 PM 65.8 °F 40.1 °F 39% 30.16 in 10.0 mi NNE 5.8 mph - N/A   Scattered Clouds
5:43 PM 65.7 °F 40.1 °F 39% 30.17 in 10.0 mi North 6.9 mph - N/A   Scattered Clouds
6:03 PM 65.7 °F 40.3 °F 39% 30.17 in 10.0 mi NNE 4.6 mph - N/A   Mostly Cloudy
6:23 PM 65.3 °F 41.0 °F 41% 30.17 in 10.0 mi NNE 3.5 mph - N/A   Mostly Cloudy
6:43 PM 64.9 °F 41.5 °F 42% 30.17 in 10.0 mi NNE 3.5 mph - N/A   Scattered Clouds
7:03 PM 64.9 °F 41.9 °F 43% 30.17 in 10.0 mi Calm Calm - N/A   Mostly Cloudy
7:23 PM 64.6 °F 42.1 °F 44% 30.18 in 10.0 mi Calm Calm - N/A   Overcast
7:43 PM 64.0 °F 43.7 °F 48% 30.18 in 10.0 mi North 6.9 mph - N/A   Scattered Clouds
8:03 PM 63.5 °F 43.2 °F 47% 30.19 in 10.0 mi North 6.9 mph - N/A   Scattered Clouds
8:23 PM 62.8 °F 42.6 °F 48% 30.20 in 10.0 mi North 5.8 mph - N/A   Scattered Clouds
8:43 PM 62.8 °F 42.4 °F 47% 30.20 in 10.0 mi North 4.6 mph - N/A   Overcast
9:03 PM 62.6 °F 42.6 °F 48% 30.20 in 10.0 mi North 6.9 mph - N/A   Overcast
9:23 PM 62.6 °F 42.3 °F 47% 30.20 in 10.0 mi North 4.6 mph - N/A   Overcast
9:43 PM 62.2 °F 41.9 °F 47% 30.19 in 10.0 mi North 6.9 mph - N/A   Overcast
10:03 PM 62.1 °F 41.9 °F 48% 30.19 in 10.0 mi NNE 4.6 mph - N/A   Overcast
10:23 PM 61.7 °F 41.9 °F 48% 30.20 in 10.0 mi North 5.8 mph - N/A   Mostly Cloudy
10:43 PM 61.7 °F 41.4 °F 47% 30.20 in 10.0 mi NNE 3.5 mph - N/A   Mostly Cloudy
11:03 PM 61.7 °F 41.0 °F 47% 30.20 in 10.0 mi NNE 4.6 mph - N/A   Overcast
11:23 PM 61.7 °F 40.5 °F 46% 30.20 in 10.0 mi NNE 3.5 mph - N/A   Overcast
11:43 PM 61.3 °F 40.1 °F 46% 30.20 in 10.0 mi NNE 3.5 mph - N/A   Overcast